EW9451 Weather Reports


time (UTC)temp
C
wind
direction
speed
KPH
gust
KPH
rain 1hr
cm
rain 24hr
cm
rain mn
cm
humidity
%
barometer
mb
20260508060043 3 133 0.0 1.6 0.00 0.00 0.00 71 1002.2
20260508055539 3 133 0.0 0.0 0.00 0.00 0.00 71 1002.3
20260508055039 3 133 0.0 0.0 0.00 0.00 0.00 71 1002.4
20260508054553 3 133 0.0 0.0 0.00 0.00 0.00 71 1002.4
20260508054037 3 133 0.0 1.6 0.00 0.00 0.00 71 1002.4
20260508053540 4 133 0.0 1.6 0.00 0.00 0.00 72 1002.5
20260508053040 4 133 0.0 3.2 0.00 0.00 0.00 72 1002.5
20260508052536 4 133 0.0 3.2 0.00 0.00 0.00 72 1002.5
20260508052036 3 133 1.6 3.2 0.00 0.00 0.00 72 1002.5
20260508051535 3 127 0.0 3.2 0.00 0.00 0.00 73 1002.6
20260508051034 3 127 1.6 3.2 0.00 0.00 0.00 73 1002.6
20260508050534 3 121 1.6 3.2 0.00 0.00 0.00 74 1002.7
20260508050040 3 121 0.0 3.2 0.00 0.00 0.00 75 1002.7
20260508045532 3 115 0.0 3.2 0.00 0.00 0.00 76 1002.7
20260508045032 3 115 1.6 3.2 0.00 0.00 0.00 77 1002.8
20260508044531 3 123 1.6 3.2 0.00 0.00 0.00 79 1002.7
20260508044030 3 123 1.6 4.8 0.00 0.00 0.00 79 1002.7
20260508043529 3 126 1.6 4.8 0.00 0.00 0.00 79 1002.7
20260508043028 3 126 0.0 4.8 0.00 0.00 0.00 79 1002.8
20260508042528 3 213 0.0 3.2 0.00 0.00 0.00 79 1002.7
20260508042027 3 213 0.0 1.6 0.00 0.00 0.00 79 1002.8
20260508041532 3 213 0.0 3.2 0.00 0.00 0.00 79 1002.8
20260508041025 3 213 0.0 3.2 0.00 0.00 0.00 79 1002.8
20260508040524 4 213 0.0 1.6 0.00 0.00 0.00 72 1002.8
20260508040023 4 213 0.0 1.6 0.00 0.00 0.00 76 1002.7
20260508035523 4 213 0.0 3.2 0.00 0.00 0.00 74 1002.7
20260508035023 4 213 0.0 3.2 0.00 0.00 0.00 77 1002.7
20260508034523 4 213 0.0 3.2 0.00 0.00 0.00 77 1002.7
20260508034023 4 213 1.6 3.2 0.00 0.00 0.00 75 1002.7
20260508033522 4 213 0.0 1.6 0.00 0.00 0.00 74 1002.7
20260508033033 4 213 0.0 0.0 0.00 0.00 0.00 72 1002.8
20260508032525 4 213 0.0 0.0 0.00 0.00 0.00 70 1002.8
20260508032022 4 213 0.0 0.0 0.00 0.00 0.00 70 1002.9
20260508031524 4 213 0.0 0.0 0.00 0.00 0.00 70 1002.8
20260508031022 4 213 0.0 0.0 0.00 0.00 0.00 68 1002.8
20260508030522 4 213 0.0 0.0 0.00 0.00 0.00 70 1002.8
20260508030022 4 213 0.0 0.0 0.00 0.00 0.00 68 1002.8
20260508025521 4 213 0.0 0.0 0.00 0.00 0.00 69 1002.8
20260508025020 4 213 0.0 0.0 0.00 0.00 0.00 69 1002.8
20260508024522 4 213 0.0 0.0 0.00 0.00 0.00 68 1002.8
20260508024020 4 213 0.0 3.2 0.00 0.00 0.00 69 1002.8
20260508023520 4 213 0.0 3.2 0.00 0.00 0.00 69 1002.8
20260508023035 4 232 1.6 3.2 0.00 0.00 0.00 69 1002.9
20260508022520 4 232 0.0 3.2 0.00 0.00 0.00 68 1002.9
20260508022020 4 232 1.6 3.2 0.00 0.00 0.00 68 1002.8
20260508021521 4 232 0.0 3.2 0.00 0.00 0.00 68 1002.9
20260508021019 4 232 1.6 3.2 0.00 0.00 0.00 67 1002.8
20260508020521 4 301 0.0 1.6 0.00 0.00 0.00 66 1002.8
20260508020019 5 301 0.0 1.6 0.00 0.00 0.00 66 1002.8
20260508015519 5 301 0.0 0.0 0.00 0.00 0.00 68 1002.8
20260508015019 5 301 0.0 0.0 0.00 0.00 0.00 65 1002.8
20260508014519 5 301 0.0 1.6 0.00 0.00 0.00 61 1002.8
20260508014019 5 301 0.0 1.6 0.00 0.00 0.00 61 1002.7
20260508013519 5 301 0.0 1.6 0.00 0.00 0.00 63 1002.7
20260508013020 5 301 0.0 1.6 0.00 0.00 0.00 64 1002.7
20260508012518 5 301 0.0 3.2 0.00 0.00 0.00 63 1002.8
20260508012018 5 301 0.0 3.2 0.00 0.00 0.00 62 1002.7
20260508011518 5 301 0.0 3.2 0.00 0.00 0.00 61 1002.7
20260508011018 5 301 0.0 3.2 0.00 0.00 0.00 60 1002.7
20260508010517 5 301 0.0 3.2 0.00 0.03 0.00 59 1002.7
20260508010034 6 301 0.0 1.6 0.00 0.03 0.00 59 1002.7
20260508005516 6 301 0.0 3.2 0.00 0.03 0.00 57 1002.6
20260508005017 6 301 0.0 3.2 0.00 0.03 0.00 57 1002.6
20260508004522 6 320 0.0 1.6 0.00 0.03 0.00 55 1002.6
20260508004016 6 320 0.0 3.2 0.00 0.03 0.00 55 1002.5
20260508003519 6 323 0.0 3.2 0.00 0.03 0.00 54 1002.4
20260508003020 7 333 0.0 3.2 0.00 0.03 0.00 56 1002.3
20260508002515 7 319 0.0 4.8 0.00 0.03 0.00 56 1002.3
20260508002018 7 322 1.6 11.3 0.00 0.03 0.00 56 1002.2
20260508001526 7 296 3.2 11.3 0.00 0.03 0.00 52 1002.3
20260508001014 7 339 0.0 3.2 0.00 0.03 0.00 55 1002.3
20260508000514 7 339 0.0 3.2 0.00 0.05 0.00 53 1002.2
20260508000019 8 340 0.0 4.8 0.00 0.05 0.00 53 1002.2
20260507235514 8 286 0.0 4.8 0.00 0.05 0.00 55 1002.1
20260507235014 8 319 0.0 4.8 0.00 0.05 0.00 54 1002.1
20260507234517 8 327 0.0 4.8 0.00 0.05 0.00 53 1002.1
20260507234013 8 337 1.6 8.0 0.00 0.05 0.00 49 1002.1
20260507233513 8 323 1.6 14.5 0.00 0.05 0.00 50 1002.1
20260507233013 8 310 6.4 14.5 0.00 0.05 0.00 51 1002.1
20260507232513 8 294 1.6 8.0 0.00 0.05 0.00 53 1002.1
20260507232017 8 343 3.2 8.0 0.00 0.05 0.00 50 1002.1
20260507231513 8 326 1.6 12.9 0.00 0.05 0.00 51 1002.1
20260507231013 8 296 4.8 12.9 0.00 0.05 0.00 51 1002.1
20260507230512 8 276 4.8 12.9 0.00 0.05 0.00 52 1002.1
20260507230013 9 311 4.8 12.9 0.00 0.05 0.00 52 1002.2
20260507225511 10 297 3.2 9.7 0.00 0.05 0.00 49 1002.2
20260507225011 10 287 4.8 16.1 0.00 0.05 0.00 48 1002.2
20260507224511 9 292 8.0 16.1 0.00 0.05 0.00 45 1002.1
20260507224009 9 306 4.8 17.7 0.00 0.05 0.00 46 1002.1
20260507223508 9 293 3.2 19.3 0.00 0.05 0.00 50 1002.2
20260507223010 9 274 6.4 19.3 0.00 0.05 0.00 48 1002.1
20260507222507 9 334 4.8 12.9 0.00 0.05 0.00 49 1002.1
20260507222008 8 292 4.8 9.7 0.00 0.05 0.00 52 1002.2
20260507221508 8 350 3.2 12.9 0.00 0.05 0.00 51 1002.2
20260507221008 8 309 4.8 14.5 0.00 0.05 0.00 49 1002.1
20260507220511 9 293 4.8 19.3 0.00 0.05 0.00 53 1002.1
20260507220007 9 312 3.2 19.3 0.00 0.05 0.00 48 1002.3
20260507215507 9 313 6.4 22.5 0.00 0.05 0.00 46 1002.2
20260507215007 9 342 8.0 22.5 0.00 0.05 0.00 45 1002.2
20260507214506 9 332 6.4 22.5 0.00 0.05 0.00 47 1002.2
20260507214006 9 311 8.0 22.5 0.00 0.05 0.00 46 1002.1
20260507213506 9 327 4.8 14.5 0.00 0.05 0.00 48 1002.2
20260507213017 10 284 4.8 20.9 0.00 0.05 0.00 48 1002.1
20260507212505 10 279 8.0 20.9 0.00 0.05 0.00 48 1002.1
20260507212006 10 291 8.0 22.5 0.00 0.05 0.00 44 1002.0
20260507211505 10 325 9.7 24.1 0.00 0.05 0.00 44 1002.0
20260507211004 10 320 12.9 24.1 0.00 0.05 0.00 42 1002.0
20260507210507 11 295 9.7 19.3 0.00 0.18 0.00 44 1002.0
20260507210019 11 305 9.7 19.3 0.00 0.18 0.00 42 1002.0
20260507205504 11 292 8.0 17.7 0.00 0.18 0.00 46 1001.8
20260507205004 10 297 6.4 17.7 0.00 0.18 0.00 45 1001.8
20260507204504 10 340 8.0 24.1 0.00 0.18 0.00 43 1001.8
20260507204004 10 259 9.7 24.1 0.00 0.18 0.00 43 1001.8
20260507203504 11 274 4.8 24.1 0.00 0.18 0.00 48 1001.8
20260507203003 11 258 12.9 24.1 0.00 0.18 0.00 46 1001.8
20260507202502 11 327 11.3 20.9 0.00 0.18 0.00 42 1001.7
20260507202003 11 298 8.0 19.3 0.00 0.18 0.00 41 1001.7
20260507201508 12 314 6.4 19.3 0.00 0.18 0.00 43 1001.7
20260507201002 11 301 9.7 19.3 0.00 0.18 0.00 44 1001.7
20260507200502 11 329 6.4 27.4 0.00 0.20 0.00 46 1001.7
20260507200008 11 344 11.3 27.4 0.00 0.20 0.00 45 1001.8
20260507195501 11 312 12.9 27.4 0.00 0.20 0.00 41 1001.7
20260507195003 11 314 11.3 27.4 0.00 0.20 0.00 48 1001.7
20260507194502 11 253 11.3 22.5 0.00 0.20 0.00 44 1001.7
20260507194104 11 261 12.9 22.5 0.00 0.20 0.00 47 1001.7
20260507194001 11 302 12.9 22.5 0.00 0.20 0.00 44 1001.8
20260507193600 11 297 8.0 24.1 0.00 0.20 0.00 42 1001.7
20260507193132 11 292 11.3 24.1 0.00 0.20 0.00 47 1001.8
20260507192559 11 325 6.4 25.7 0.00 0.20 0.00 44 1001.8
20260507192102 12 254 8.0 25.7 0.00 0.20 0.00 45 1001.7
20260507191608 11 293 11.3 17.7 0.00 0.20 0.00 47 1001.8
20260507191100 11 309 8.0 20.9 0.00 0.20 0.00 43 1001.7
20260507190558 11 319 8.0 22.5 0.00 0.20 0.00 45 1001.8
20260507190058 11 258 8.0 22.5 0.00 0.28 0.00 48 1001.9
20260507185557 11 355 11.3 22.5 0.00 0.28 0.00 44 1001.8
20260507185057 11 269 11.3 22.5 0.00 0.28 0.00 43 1001.8
20260507184559 12 301 12.9 22.5 0.00 0.28 0.00 44 1001.9
20260507184100 11 288 9.7 22.5 0.00 0.28 0.00 44 1001.9
20260507183555 11 360 9.7 27.4 0.00 0.28 0.00 47 1001.9
20260507183102 11 319 14.5 27.4 0.00 0.28 0.00 42 1001.8
20260507182555 11 319 4.8 22.5 0.00 0.28 0.00 47 1001.9
20260507182054 11 298 11.3 27.4 0.00 0.28 0.00 44 1001.9
20260507181554 11 346 12.9 27.4 0.00 0.28 0.00 51 1001.9
20260507181054 11 321 9.7 27.4 0.00 0.28 0.00 44 1001.9
20260507180554 11 310 9.7 27.4 0.00 0.28 0.00 50 1001.9
20260507180056 11 355 16.1 27.4 0.00 0.38 0.00 45 1001.8
20260507175559 11 302 12.9 27.4 0.00 0.38 0.00 46 1001.8
20260507175054 11 311 11.3 20.9 0.00 0.38 0.00 49 1001.9
20260507174600 11 266 8.0 20.9 0.00 0.38 0.00 48 1001.8
20260507174056 11 304 6.4 27.4 0.00 0.38 0.00 50 1001.8
20260507173551 10 346 8.0 27.4 0.00 0.38 0.00 56 1001.8
20260507173128 10 260 11.3 22.5 0.00 0.38 0.00 52 1001.9
20260507172554 11 288 14.5 22.5 0.00 0.38 0.00 50 1001.9
20260507172051 11 321 11.3 20.9 0.00 0.38 0.00 47 1001.9
20260507171551 11 261 8.0 20.9 0.00 0.38 0.00 48 1002.0
20260507171049 11 337 9.7 27.4 0.00 0.38 0.00 52 1001.9
20260507170551 10 290 9.7 27.4 0.00 0.38 0.00 50 1001.9
20260507170050 10 280 11.3 27.4 0.00 0.53 0.00 50 1001.9
20260507165547 10 265 16.1 27.4 0.00 0.53 0.00 50 1002.2
20260507165049 10 275 12.9 22.5 0.00 0.53 0.00 52 1002.1
20260507164553 10 322 8.0 20.9 0.00 0.53 0.00 51 1002.1
20260507164044 10 19 9.7 20.9 0.00 0.53 0.00 51 1002.1
20260507163544 9 304 8.0 20.9 0.00 0.53 0.00 52 1002.1
20260507163043 8 260 6.4 22.5 0.00 0.53 0.00 59 1002.4
20260507162543 8 343 11.3 22.5 0.00 0.53 0.00 59 1002.5
20260507162042 9 313 6.4 25.7 0.00 0.53 0.00 55 1002.6
20260507161549 9 325 11.3 20.9 0.00 0.53 0.00 53 1002.7
20260507161042 9 323 9.7 20.9 0.00 0.53 0.00 56 1002.9
20260507160542 9 323 9.7 20.9 0.00 0.84 0.00 61 1002.9
20260507160059 9 325 9.7 20.9 0.00 0.84 0.00 61 1002.9
20260507155538 8 306 8.0 20.9 0.00 0.84 0.00 56 1002.9
20260507155040 8 342 8.0 16.1 0.00 0.84 0.00 56 1002.9
20260507154538 8 285 6.4 22.5 0.00 0.84 0.00 55 1003.0
20260507154037 8 342 9.7 22.5 0.00 0.84 0.00 60 1003.0
20260507153537 8 311 4.8 22.5 0.00 0.84 0.00 58 1002.9
20260507153037 8 276 11.3 25.7 0.00 0.84 0.00 58 1003.0
20260507152537 8 324 11.3 25.7 0.00 0.84 0.00 60 1003.1
20260507152036 8 310 9.7 20.9 0.00 0.84 0.00 60 1003.2
20260507151534 8 302 9.7 20.9 0.00 0.84 0.00 57 1003.2
20260507151034 8 313 8.0 17.7 0.00 0.84 0.00 68 1003.3
20260507150536 7 326 8.0 24.1 0.00 1.02 0.00 63 1003.2
20260507150034 7 315 6.4 24.1 0.00 1.02 0.00 61 1003.2
20260507145533 7 239 12.9 24.1 0.00 1.02 0.00 59 1003.0
20260507145033 7 321 9.7 24.1 0.00 1.02 0.00 59 1003.1
20260507144544 8 310 9.7 20.9 0.00 1.02 0.00 66 1003.0
20260507144036 7 313 6.4 20.9 0.00 1.02 0.00 66 1003.2
20260507143530 7 259 8.0 20.9 0.00 1.02 0.00 64 1003.1
20260507143033 7 280 4.8 20.9 0.00 1.02 0.00 67 1003.2
20260507142530 7 323 6.4 19.3 0.00 1.02 0.00 69 1003.2
20260507142027 7 315 9.7 20.9 0.00 1.02 0.00 67 1003.2
20260507141529 7 328 11.3 20.9 0.00 1.02 0.00 76 1003.0
20260507141027 6 341 6.4 25.7 0.00 1.02 0.00 69 1003.2
20260507140526 6 360 8.0 25.7 0.00 1.04 0.00 69 1003.1
20260507140027 6 324 3.2 14.5 0.00 1.04 0.00 72 1003.3
20260507135523 6 351 4.8 16.1 0.00 1.04 0.00 71 1003.3
20260507135023 6 360 6.4 16.1 0.00 1.04 0.00 69 1003.4
20260507134523 6 311 3.2 16.1 0.00 1.04 0.00 74 1003.3
20260507134024 6 240 6.4 20.9 0.00 1.04 0.00 73 1003.2
20260507133521 5 282 8.0 20.9 0.00 1.04 0.00 73 1003.3
20260507133021 5 296 11.3 25.7 0.00 1.04 0.00 76 1003.3
20260507132519 5 319 11.3 25.7 0.00 1.04 0.00 72 1003.4
20260507132018 5 265 12.9 24.1 0.00 1.04 0.00 76 1003.2
20260507131517 6 315 8.0 19.3 0.00 1.04 0.00 85 1003.2
20260507131018 5 281 8.0 19.3 0.00 1.04 0.00 82 1003.1
20260507130516 5 360 4.8 22.5 0.00 1.17 0.00 79 1003.1
20260507130027 5 292 6.4 22.5 0.00 1.17 0.00 86 1003.2
20260507125513 5 194 8.0 22.5 0.00 1.17 0.00 83 1003.3
20260507125012 5 346 9.7 22.5 0.00 1.17 0.00 84 1003.1
20260507124516 5 348 8.0 16.1 0.00 1.17 0.00 86 1003.2
20260507124010 5 342 1.6 9.7 0.00 1.17 0.00 89 1003.1
20260507123511 5 305 3.2 12.9 0.00 1.17 0.00 89 1003.2
20260507123009 5 319 4.8 12.9 0.00 1.17 0.00 90 1003.2
20260507122507 5 317 4.8 19.3 0.00 1.17 0.00 90 1003.2
20260507122008 5 316 6.4 19.3 0.00 1.17 0.00 91 1003.3
20260507121508 4 302 4.8 12.9 0.00 1.17 0.00 93 1003.1
20260507121006 4 302 0.0 8.0 0.00 1.17 0.00 95 1003.2
20260507120505 4 321 3.2 14.5 0.00 1.32 0.00 94 1003.1
20260507120011 4 298 6.4 14.5 0.00 1.32 0.00 95 1003.1
20260507115506 5 307 3.2 9.7 0.00 1.32 0.00 97 1003.1
20260507115006 5 322 3.2 9.7 0.00 1.32 0.00 97 1003.0
20260507114503 4 339 4.8 9.7 0.00 1.32 0.00 97 1002.8
20260507114003 4 148 0.0 4.8 0.00 1.32 0.00 97 1002.7
20260507113504 4 296 3.2 8.0 0.00 1.32 0.00 97 1002.7
20260507113004 5 292 3.2 9.7 0.00 1.32 0.00 98 1002.6
20260507112505 5 193 0.0 11.3 0.00 1.32 0.00 98 1002.5
20260507112005 5 44 3.2 11.3 0.00 1.32 0.00 98 1002.7
20260507111507 5 336 1.6 8.0 0.00 1.32 0.00 98 1002.7
20260507111001 5 334 3.2 8.0 0.00 1.32 0.00 98 1002.8
20260507110501 5 180 0.0 11.3 0.00 1.37 0.00 98 1002.7
20260507110002 5 252 1.6 11.3 0.00 1.37 0.00 98 1002.8
20260507105600 4 263 4.8 9.7 0.00 1.37 0.00 98 1002.7
20260507105100 4 174 0.0 4.8 0.00 1.37 0.00 98 1002.6
20260507104602 4 213 0.0 3.2 0.00 1.37 0.00 98 1002.5
20260507104100 4 309 0.0 3.2 0.00 1.37 0.00 98 1002.4
20260507103602 4 194 0.0 3.2 0.00 1.37 0.00 98 1002.3
20260507103059 4 192 0.0 3.2 0.00 1.37 0.00 98 1002.2
20260507102600 4 203 0.0 3.2 0.00 1.37 0.00 98 1002.1
20260507102058 4 203 0.0 3.2 0.00 1.37 0.00 98 1002.2
20260507101634 4 203 0.0 3.2 0.00 1.37 0.00 98 1002.2
20260507101058 4 203 0.0 1.6 0.00 1.37 0.00 98 1002.2
20260507100558 4 203 0.0 1.6 0.00 1.37 0.00 98 1002.3
20260507100100 4 203 0.0 0.0 0.00 1.45 0.00 98 1002.3
20260507095557 4 203 0.0 0.0 0.00 1.45 0.00 98 1002.3
20260507095056 4 203 0.0 0.0 0.00 1.45 0.00 98 1002.2
20260507094557 4 203 0.0 1.6 0.00 1.45 0.00 98 1002.3
20260507094057 4 203 0.0 1.6 0.00 1.45 0.00 98 1002.2
20260507093557 4 203 0.0 1.6 0.00 1.45 0.00 98 1002.1
20260507093059 4 203 0.0 1.6 0.00 1.45 0.00 98 1002.1
20260507092556 4 203 0.0 0.0 0.00 1.45 0.00 98 1002.0
20260507092058 4 203 0.0 1.6 0.00 1.45 0.00 98 1002.1
20260507091556 4 203 0.0 1.6 0.00 1.45 0.00 98 1002.1
20260507091055 4 203 0.0 1.6 0.00 1.45 0.00 98 1002.1
20260507090555 4 203 0.0 1.6 0.00 1.45 0.00 98 1002.2
20260507090106 4 203 0.0 3.2 0.00 1.52 0.00 98 1002.1
20260507085555 4 203 0.0 3.2 0.00 1.52 0.00 98 1002.1
20260507085054 3 143 0.0 4.8 0.00 1.52 0.00 98 1002.1
20260507084555 3 142 1.6 4.8 0.00 1.52 0.00 98 1002.1
20260507084053 3 136 0.0 4.8 0.00 1.52 0.00 98 1002.1
20260507083554 3 136 1.6 4.8 0.00 1.52 0.00 98 1002.1
20260507083054 3 157 0.0 3.2 0.00 1.52 0.00 98 1002.3
20260507082556 3 157 0.0 3.2 0.00 1.52 0.00 98 1002.5
20260507082055 3 157 0.0 3.2 0.00 1.52 0.00 98 1002.5
20260507081553 3 157 0.0 3.2 0.00 1.52 0.00 98 1002.5
20260507081055 3 157 0.0 3.2 0.00 1.52 0.00 98 1002.5
20260507080553 3 155 0.0 4.8 0.00 1.52 0.00 97 1002.5
20260507080052 3 155 1.6 4.8 0.00 1.68 0.00 97 1002.6
20260507075554 3 117 0.0 3.2 0.00 1.68 0.00 97 1002.6
20260507075050 3 146 1.6 4.8 0.00 1.68 0.00 97 1002.6
20260507074555 3 132 1.6 4.8 0.00 1.68 0.00 97 1002.7
20260507074048 3 132 1.6 3.2 0.00 1.68 0.00 97 1002.7
20260507073548 3 132 0.0 3.2 0.00 1.68 0.00 97 1002.8
20260507073048 3 132 1.6 4.8 0.00 1.68 0.00 97 1002.8
20260507072548 3 132 0.0 4.8 0.00 1.68 0.00 97 1002.7
20260507072047 3 248 0.0 3.2 0.00 1.68 0.00 97 1002.6
20260507071547 3 283 0.0 1.6 0.00 1.68 0.00 97 1002.4
20260507071047 3 283 0.0 3.2 0.00 1.68 0.00 97 1002.4
20260507070546 3 282 0.0 3.2 0.00 1.68 0.00 97 1002.4
20260507070050 3 282 0.0 3.2 0.00 1.85 0.00 97 1002.3
20260507065545 3 280 0.0 3.2 0.00 1.85 0.00 97 1002.2
20260507065045 3 134 0.0 6.4 0.00 1.85 0.00 97 1002.1
20260507064603 3 134 1.6 6.4 0.00 1.85 0.00 97 1002.1
20260507064044 3 270 1.6 4.8 0.00 1.85 0.00 97 1002.2
20260507063543 3 169 0.0 4.8 0.00 1.85 0.00 97 1002.1
20260507063047 3 103 1.6 3.2 0.00 1.85 0.00 97 1002.1
20260507062544 3 323 0.0 1.6 0.00 1.85 0.00 97 1002.0
20260507062142 3 323 0.0 1.6 0.00 1.85 0.00 97 1002.1
20260507061542 3 323 0.0 3.2 0.00 1.85 0.00 97 1002.3
20260507061041 3 323 0.0 3.2 0.00 1.85 0.00 97 1002.4
20260507060541 3 323 1.6 3.2 0.00 1.96 0.00 97 1002.4